Location: Brabourne
(51.1333°N, 1.0000°E)
Time: 08:10:33
(UTC+00:00)

Cosmos 372 Rocket - Pass Details

Date: 20 June 2021
Orbit: 737 x 768 km, 74.1° (Epoch: 02 August)

Event Time Altitude Azimuth Distance (km) Brightness Sun altitude
Rises 00:59:42 0° 336° (NNW) 3,235 8.1 -14.2°
Reaches altitude 10° 01:02:05 10° 338° (NNW) 2,310 7.3 -14.1°
Maximum altitude 01:07:20 73° 64° (ENE) 805 4.2 -13.9°
Drops below altitude 10° 01:12:34 10° 149° (SSE) 2,305 6.1 -13.6°
Enters shadow 01:13:08 - 150° (SSE) 2,525 6.3 -13.6°
